[Iaude] MPEC B11: 2013 UN15 [a=44.93,e=0.06,i=3.4,H=7.4]

mpec at si.edu mpec at si.edu
Wed Jan 18 10:49:23 EST 2017


M.P.E.C. 2017-B11                                Issued 2017 Jan. 18, 15:46 UT
 
     The Minor Planet Electronic Circulars contain information on unusual
         minor planets and routine data on comets.  They are published
    on behalf of Division F of the International Astronomical Union by the
          Minor Planet Center, Smithsonian Astrophysical Observatory,
                          Cambridge, MA 02138, U.S.A.

             Prepared using the Tamkin Foundation Computer Network

                              MPC at CFA.HARVARD.EDU
            URL http://www.minorplanetcenter.net/    ISSN 1523-6714


                                   2013 UN15
 
Observations:
     K13U15N @C2013 08 02.52798 01 07 06.257+05 17 02.78         24.0 rqEB011568
     K13U15N @C2013 08 02.57069 01 07 06.205+05 17 02.40         24.2 rqEB011568
     K13U15N @C2013 08 30.44360 01 06 07.597+05 09 47.19         23.8 rqEB011568
     K13U15N @C2013 08 31.44775 01 06 04.547+05 09 26.02         23.9 rqEB011568
     K13U15N @C2013 08 31.49065 01 06 04.423+05 09 25.08         24.1 rqEB011568
     K13U15N @C2013 08 31.50871 01 06 04.363+05 09 24.64         23.9 rqEB011568
     K13U15N @C2013 09 04.42758 01 05 51.961+05 07 59.64         23.9 rqEB011568
     K13U15N @C2013 09 04.47051 01 05 51.802+05 07 58.56         23.9 rqEB011568
     K13U15N @C2013 09 04.47904 01 05 51.804+05 07 58.38         23.7 rqEB011568
     K13U15N @C2013 09 04.49657 01 05 51.739+05 07 58.41         23.7 rqEB011568
     K13U15N @C2013 09 04.50244 01 05 51.698+05 07 57.87         24.1 rqEB011568
     K13U15N @C2013 09 04.52303 01 05 51.627+05 07 57.28         24.1 rqEB011568
     K13U15N @C2013 10 06.40889 01 03 48.504+04 54 29.70         23.6 rqEB011568
     K13U15N @C2013 10 06.49158 01 03 48.145+04 54 27.42         23.6 rqEB011568
     K13U15N @C2013 10 06.49617 01 03 48.129+04 54 27.44         23.4 rqEB011568
     K13U15N @C2013 10 09.53885 01 03 35.242+04 53 05.37         23.7 rqEB011568
     K13U15N*@C2013 10 31.25056 01 02 05.906+04 43 49.00         24.0 rqEB011568
     K13U15N @C2013 10 31.29355 01 02 05.728+04 43 47.91         23.3 rqEB011568
     K13U15N @C2013 10 31.33628 01 02 05.557+04 43 46.98         23.5 rqEB011568
     K13U15N @C2013 11 01.27683 01 02 01.925+04 43 24.72         24.1 rqEB011568
     K13U15N @C2013 11 01.40318 01 02 01.437+04 43 21.83         24.4 rqEB011568
     K13U15N @C2013 11 05.45493 01 01 46.117+04 41 48.69         23.7 rqEB011568
     K13U15N @C2013 11 29.31710 01 00 32.175+04 34 33.91         24.0 rqEB011568
     K13U15N @C2013 12 04.26738 01 00 21.233+04 33 33.32         23.5 rqEB011568
     K13U15N @C2013 12 04.31956 01 00 21.134+04 33 32.64         24.2 rqEB011568
     K13U15N @C2014 06 27.59782 01 11 22.526+05 41 16.41         23.9 rqEB011568
     K13U15N @C2014 06 28.60286 01 11 24.372+05 41 24.39         24.1 rqEB011568
     K13U15N @C2014 07 24.56087 01 11 44.119+05 42 03.08         23.8 rqEB011568
     K13U15N @C2014 08 22.56426 01 11 03.609+05 36 30.39         23.9 rqEB011568
     K13U15N @C2014 08 29.52684 01 10 45.117+05 34 19.82         24.3 rqEB011568
     K13U15N @C2014 08 29.61463 01 10 44.858+05 34 18.10         24.0 rqEB011568
     K13U15N @C2014 10 23.36016 01 07 13.747+05 11 32.29         23.4 rqEB011568
     K13U15N @C2014 10 27.39884 01 06 57.231+05 09 50.83         23.6 rqEB011568
     K13U15N @C2014 11 24.24000 01 05 19.303+05 00 08.27         23.7 rqEB011568
     K13U15N @C2014 11 25.23617 01 05 16.524+04 59 52.48         23.6 rqEB011568
     K13U15N @C2014 12 17.25486 01 04 32.942+04 55 59.45         23.7 rqEB011568
     K13U15N @C2015 01 17.23854 01 04 38.132+04 57 33.92         24.0 rqEB011568
     K13U15N @C2015 08 20.51066 01 15 41.791+06 01 00.51         23.7 rqEB011568
     K13U15N @C2015 10 15.30155 01 12 23.399+05 39 17.70         23.6 rqEB011568
     K13U15N @C2015 10 15.30564 01 12 23.378+05 39 17.48         23.7 rqEB011568
     K13U15N @C2015 10 15.35250 01 12 23.182+05 39 16.31         23.4 rqEB011568
     K13U15N @C2015 10 15.35660 01 12 23.159+05 39 16.23         23.3 rqEB011568
     K13U15N @C2015 12 07.37779 01 09 20.411+05 21 18.03         24.3 wqEB011568
 
Observer details:
568 Mauna Kea.  Observers M. T. Bannister, J. J. Kavelaars, B. J. Gladman,
    J.-M. Petit, T. Burdullis.  Measurers S. D. J. Gwyn, Y.-T. Chen.  3.6-m
    Canada-France-Hawaii Telescope + CCD.
 
Orbital elements:
2013 UN15
Epoch 2017 Feb. 16.0 TT = JDT 2457800.5                 MPC
M  94.45510              (2000.0)            P               Q
n   0.00327260     Peri.  113.61758     +0.17013963     +0.98531955
a  44.9304803      Node   166.15631     -0.92418098     +0.16450413
e   0.0555216      Incl.    3.37055     -0.34196787     +0.04564847
P 301              H    7.4           G   0.15           U   3
Residuals in seconds of arc
130802 568  0.0   0.1-    131009 568  0.5-  0.4-    140829 568  0.0   0.1+
130802 568  0.0   0.0     131031 568  0.1+  0.0     141023 568  0.0   0.0
130830 568  0.1+  0.2+    131031 568  0.1-  0.0     141027 568  0.1+  0.0
130831 568  0.1-  0.1+    131031 568  0.1-  0.1+    141124 568  0.1+  0.1-
130831 568  0.1+  0.0     131101 568  0.0   0.0     141125 568  0.0   0.0
130831 568  0.0   0.0     131101 568  0.1+  0.1+    141217 568  0.0   0.1-
130904 568  0.1+  0.1+    131105 568  0.1+  0.0     150117 568  0.0   0.0
130904 568  0.2-  0.1-    131129 568  0.1+  0.1+    150820 568  0.1+  0.0
130904 568  0.3+  0.1-    131204 568  0.0   0.1+    151015 568  0.0   0.0
130904 568  0.2+  0.4+    131204 568  0.1+  0.0     151015 568  0.1-  0.1-
130904 568  0.1-  0.0     140627 568  0.0   0.2+    151015 568  0.0   0.0
130904 568  0.1-  0.2-    140628 568  0.0   0.0     151015 568  0.0   0.0
131006 568  0.0   0.1-    140724 568  0.1-  0.0     151207 568  0.1-  0.1+
131006 568  0.0   0.1-    140822 568  0.1-  0.1-
131006 568  0.0   0.0     140829 568  0.0   0.0

Ephemeris:
2013 UN15                a,e,i = 44.93, 0.06, 3                  q = 42.436
Date    TT    R. A. (2000) Decl.     Delta      r     Elong.  Phase     V
2016 12 19    01 13 31.6 +05 43 27  44.8772 45.2525   111.8     1.2    24.1
...
2017 01 03    01 13 23.6 +05 43 11  45.1322 45.2546    96.5     1.2    24.1
...
2017 01 11    01 13 27.2 +05 43 50  45.2724 45.2557    88.4     1.2    24.1
...
2017 01 17    01 13 33.5 +05 44 42  45.3774 45.2565    82.3     1.2    24.1
2017 01 18    01 13 34.9 +05 44 52  45.3948 45.2567    81.3     1.2    24.1
2017 01 19    01 13 36.3 +05 45 03  45.4121 45.2568    80.3     1.2    24.1
...
2017 01 25    01 13 46.6 +05 46 19  45.5150 45.2576    74.2     1.2    24.1
...
2017 02 02    01 14 05.0 +05 48 27  45.6473 45.2588    66.2     1.1    24.1
...
2017 02 17    01 14 52.3 +05 53 41  45.8727 45.2609    51.3     1.0    24.1

A. U. Tomatic                (C) Copyright 2017 MPC           M.P.E.C. 2017-B11




More information about the Iaude mailing list